POERUNWV Weather Reports


time (UTC)temp
F
wind
direction
speed
knots
gust
knots
rain 1hr
in
rain 24hr
in
rain mn
in
humidity
%
barometer
mb
20260503221537 52 305 1.7 5.2 0.00 0.00 0.00 37 1015.0
20260503220040 52 0 0.0 5.2 0.00 0.00 0.00 37 1015.0
20260503214542 52 217 1.7 4.3 0.00 0.00 0.00 37 1015.0
20260503213052 52 192 1.7 6.1 0.00 0.00 0.00 37 1015.1
20260503211556 52 337 2.6 7.0 0.00 0.00 0.00 36 1015.2
20260503210036 52 0 2.6 9.6 0.00 0.00 0.00 35 1015.4
20260503204552 53 269 0.9 6.1 0.00 0.00 0.00 37 1015.5
20260503203040 52 1 1.7 7.8 0.00 0.00 0.00 40 1015.5
20260503201538 52 334 3.5 7.8 0.00 0.00 0.00 35 1015.8
20260503200038 52 321 2.6 8.7 0.00 0.00 0.00 37 1015.9
20260503194537 52 314 2.6 11.3 0.00 0.00 0.00 38 1016.3
20260503193039 52 316 3.5 7.8 0.00 0.00 0.00 36 1016.6
20260503191555 50 282 1.7 7.0 0.00 0.00 0.00 40 1016.5
20260503190038 51 259 3.5 7.0 0.00 0.00 0.00 37 1016.6
20260503184551 51 319 1.7 7.8 0.00 0.00 0.00 38 1016.7
20260503183042 50 249 1.7 4.3 0.00 0.00 0.00 38 1017.0
20260503181534 50 350 2.6 5.2 0.00 0.00 0.00 41 1017.0
20260503180040 49 283 2.6 7.0 0.00 0.00 0.00 41 1017.3
20260503174549 49 333 2.6 7.0 0.00 0.00 0.00 43 1017.3
20260503173037 47 338 2.6 7.8 0.00 0.00 0.00 43 1017.4
20260503171536 48 306 2.6 7.0 0.00 0.00 0.00 44 1017.4
20260503081551 32 0 0.0 0.9 0.00 0.00 0.00 87 1015.4
20260503071557 33 311 0.9 2.6 0.00 0.00 0.00 86 1014.8
20260503054551 33 0 0.0 0.9 0.00 0.00 0.00 84 1014.7
20260503053032 33 352 0.0 1.7 0.00 0.00 0.00 83 1014.8
20260503051542 33 0 0.0 1.7 0.00 0.00 0.00 82 1014.7
20260503050036 34 350 0.9 2.6 0.00 0.00 0.00 82 1014.7
20260503044535 34 329 0.9 1.7 0.00 0.00 0.00 82 1014.8
20260503043035 35 351 0.9 3.5 0.00 0.00 0.00 81 1014.9
20260503041535 35 336 0.9 2.6 0.00 0.00 0.00 81 1014.8
20260503040034 35 353 0.9 3.5 0.00 0.00 0.00 80 1014.9
20260503034538 36 338 0.0 2.6 0.00 0.00 0.00 79 1014.9
20260503033048 36 334 0.9 4.3 0.00 0.00 0.00 78 1014.9
20260503031543 37 350 1.7 4.3 0.00 0.00 0.00 77 1014.8
20260503030037 37 350 1.7 4.3 0.00 0.00 0.00 76 1014.7
20260503024543 37 344 0.9 3.5 0.00 0.00 0.00 73 1014.8
20260503023035 38 348 0.9 4.3 0.00 0.00 0.00 71 1014.8
20260503021536 38 330 1.7 5.2 0.00 0.00 0.00 69 1014.7
20260503020035 38 317 0.9 5.2 0.00 0.00 0.00 69 1014.7
20260503014534 39 335 2.6 5.2 0.00 0.00 0.00 69 1014.8
20260503013036 39 353 0.9 4.3 0.00 0.00 0.00 67 1014.7
20260503011531 39 353 1.7 5.2 0.00 0.00 0.00 65 1014.5
20260503010036 39 348 0.9 4.3 0.00 0.00 0.00 65 1014.3
20260503004538 40 346 1.7 3.5 0.00 0.00 0.00 60 1014.3
20260503003039 41 330 0.9 3.5 0.00 0.00 0.00 58 1013.9
20260503001533 41 308 0.9 3.5 0.00 0.00 0.00 57 1013.9
20260503000037 42 324 1.7 4.3 0.00 0.00 0.00 55 1013.8
20260502234547 42 306 1.7 4.3 0.00 0.00 0.00 53 1013.6
20260502233035 42 310 1.7 3.5 0.00 0.00 0.00 51 1013.4
20260502231534 43 311 0.9 2.6 0.00 0.00 0.00 52 1013.3
20260502230037 43 344 0.9 3.5 0.00 0.00 0.00 51 1013.2
20260502224537 43 357 0.9 4.3 0.00 0.00 0.00 55 1013.1
20260502223036 44 314 0.9 3.5 0.00 0.00 0.00 51 1013.1